Location: Casteau
(50.5142°N, 4.0161°E)
Time: 22:20:51
(UTC+00:00)

Transit 2A - Pass Details

Date: 30 July 2021
Orbit: 594 x 964 km, 66.7° (Epoch: 26 September)

Event Time Altitude Azimuth Distance (km) Brightness Sun altitude
Rises 15:01:40 0° 321° (NW) 3,198 9.4 40.4°
Reaches altitude 10° 15:03:58 10° 318° (NW) 2,326 8.8 40.1°
Maximum altitude 15:09:17 65° 238° (WSW) 915 7.8 39.3°
Drops below altitude 10° 15:15:08 10° 158° (SSE) 2,554 8.8 38.4°
Sets 15:17:45 0° 155° (SSE) 3,536 9.4 38.0°
